Probability
0 0 0 0 0 0 0 0 0 0 0 0 0 0 16 26 29 35 39 45 42 42 42 42 52 35 35 42 45 52 55 58 68 58 55 52 45 48 48 39 35 23 29 26
0 0 0 0 0 0 0 0 0 3 0 0 0 0 10 23 32 39 52 52 48 42 48 42 42 29 35 39 39 52 55 45 58 58 58 48 39 39 45 23 35 26 23 19
0 0 0 0 0 0 0 0 0 3 3 0 0 0 16 23 23 42 39 55 45 45 55 42 32 26 26 35 39 29 48 58 52 45 42 29 29 29 23 23 26 23 19 13
0 0 0 0 0 0 0 0 0 3 0 0 0 0 3 23 39 45 52 65 55 45 52 52 42 35 29 32 35 42 48 58 61 42 35 26 29 23 29 26 16 19 13 6
0 0 0 0 0 0 0 0 0 0 0 0 0 0 0 10 26 45 58 65 52 48 48 52 35 35 23 26 26 29 42 55 52 42 42 35 26 23 26 23 29 19 13 6
0 0 0 0 0 0 0 0 0 0 0 0 0 0 0 3 13 13 45 61 52 45 48 48 39 35 26 19 19 32 42 48 48 42 35 29 19 19 19 23 19 16 10 6
0 0 0 0 0 0 0 0 0 0 0 0 3 0 0 3 0 3 23 45 48 45 48 52 42 35 29 16 16 26 42 45 39 39 29 19 23 19 19 16 19 13 6 6
0 0 0 0 0 0 0 0 0 0 0 0 3 0 3 3 3 3 16 32 48 48 55 52 39 35 29 26 32 32 32 42 39 29 29 29 32 10 10 16 10 10 6 3
0 0 0 0 0 0 0 0 0 0 0 0 0 0 6 6 6 6 13 19 45 48 55 45 39 35 32 26 32 32 39 39 32 35 29 32 29 13 6 16 10 6 10 3
0 0 0 0 0 0 0 0 0 0 0 0 0 0 0 0 10 13 16 23 52 48 55 45 35 32 26 23 29 26 29 29 23 19 19 13 23 19 19 16 6 6 6 6
0 0 0 0 0 0 0 0 0 0 0 0 0 0 0 0 6 16 16 23 45 48 52 52 35 29 26 23 19 29 26 26 19 16 13 13 19 16 16 16 10 10 10 10
0 0 0 0 0 0 0 0 0 0 0 0 0 0 0 3 6 13 23 26 35 48 48 45 35 32 26 19 19 26 23 16 13 10 13 13 16 13 16 6 13 13 13 10
0 0 0 0 0 0 0 0 0 0 0 0 0 0 0 10 3 10 19 35 48 58 42 35 39 32 29 19 19 19 16 13 10 0 6 10 10 10 10 3 10 10 10 0
0 0 0 0 0 0 0 0 0 0 0 0 0 0 3 10 10 10 32 52 58 52 58 35 48 39 39 32 26 19 16 13 10 10 6 6 10 10 10 3 10 10 6 0
0 0 0 0 0 0 0 0 0 0 0 0 0 0 6 13 16 23 35 52 52 58 58 52 52 48 48 39 35 23 23 23 13 13 6 13 13 10 10 10 6 6 6 3
3 0 0 0 0 0 0 0 0 0 0 0 0 3 10 13 19 16 32 39 58 61 55 58 52 52 52 42 35 35 29 29 19 23 13 16 16 16 10 6 6 6 6 6
0 3 0 0 0 0 0 0 0 0 3 0 0 10 16 10 19 29 35 29 48 52 55 61 52 58 58 52 45 35 32 32 29 26 26 23 16 16 13 6 10 6 6 6
3 0 0 0 0 0 0 0 0 3 3 3 6 10 10 13 13 16 29 32 29 42 45 55 55 52 52 42 48 45 39 35 39 32 29 26 19 16 13 13 13 13 6 6
0 6 0 0 0 0 0 0 0 0 3 3 3 6 6 10 10 10 26 29 29 32 45 52 45 48 52 45 45 48 42 39 42 32 26 26 23 23 26 16 19 16 16 13
0 3 0 0 0 0 0 0 0 0 6 3 10 6 13 6 23 19 26 35 29 32 45 52 45 42 61 61 61 48 48 48 45 42 39 32 39 35 35 39 26 23 19 16
0 0 0 0 0 0 0 3 3 0 10 6 6 10 10 13 23 23 26 35 42 35 45 48 48 48 61 65 65 68 52 52 48 48 45 42 48 48 39 42 35 23 19 13
0 0 0 0 0 0 3 3 3 13 13 10 10 16 13 10 19 19 23 42 42 39 39 45 48 55 61 61 61 65 68 58 52 52 48 52 48 39 26 45 42 26 16 13
0 0 0 0 0 3 3 3 6 6 10 13 13 16 19 13 13 13 26 35 35 42 55 55 55 55 55 61 65 65 68 65 68 61 55 55 52 42 35 39 35 26 23 6
0 0 0 0 3 0 3 3 3 3 10 10 10 13 10 16 13 23 32 35 45 45 52 65 52 55 58 61 58 65 71 74 68 71 65 55 48 42 39 42 32 13 13 10
0 0 0 0 0 0 0 0 0 3 10 13 13 19 16 10 16 23 35 52 55 52 61 58 61 65 61 65 65 65 68 74 77 71 68 52 45 45 39 35 35 19 29 19
0 0 0 0 0 0 0 0 3 3 6 13 10 23 19 19 23 19 29 35 35 45 45 52 58 52 55 52 58 61 68 71 74 71 61 52 39 35 29 29 16 0 0 0
Height
5834 5837 5838 5839 5840 5842 5842 5843 5844 5844 5843 5844 5844 5844 5843 5843 5843 5842 5842 5841 5841 5841 5841 5842 5842 5842 5842 5843 5844 5845 5846 5848 5850 5852 5853 5855 5857 5859 5861 5862 5863 5865 5867 5868
5831 5832 5834 5834 5835 5837 5838 5840 5841 5841 5840 5840 5840 5840 5840 5839 5840 5839 5839 5839 5839 5838 5839 5839 5839 5839 5839 5840 5841 5843 5844 5846 5848 5850 5851 5853 5855 5857 5859 5860 5861 5863 5864 5866
5826 5829 5829 5830 5831 5833 5834 5836 5837 5837 5837 5837 5838 5838 5837 5836 5836 5836 5836 5836 5836 5836 5836 5836 5836 5836 5837 5838 5839 5840 5842 5844 5846 5848 5849 5851 5853 5855 5857 5858 5860 5861 5863 5864
5821 5823 5824 5826 5827 5829 5831 5831 5832 5833 5834 5835 5835 5836 5834 5833 5833 5833 5832 5832 5832 5832 5832 5833 5833 5833 5834 5835 5836 5838 5840 5842 5844 5846 5847 5849 5851 5853 5855 5857 5858 5860 5861 5863
5817 5819 5820 5822 5824 5825 5826 5827 5828 5829 5830 5831 5831 5831 5833 5830 5829 5830 5830 5829 5829 5829 5830 5830 5830 5831 5832 5833 5834 5836 5838 5840 5842 5844 5846 5847 5849 5851 5853 5855 5857 5858 5860 5862
5813 5815 5816 5818 5819 5821 5822 5823 5824 5825 5827 5828 5828 5828 5829 5827 5826 5827 5827 5827 5827 5827 5827 5827 5828 5829 5830 5831 5832 5834 5836 5838 5840 5842 5844 5845 5847 5849 5851 5853 5855 5857 5859 5861
5809 5811 5812 5814 5815 5817 5818 5821 5823 5824 5824 5826 5824 5824 5825 5824 5823 5823 5824 5824 5824 5824 5824 5825 5825 5827 5828 5829 5830 5832 5834 5836 5838 5840 5842 5843 5845 5847 5849 5852 5854 5856 5858 5860
5806 5808 5809 5810 5812 5813 5814 5817 5820 5822 5823 5823 5820 5820 5822 5820 5820 5820 5821 5821 5821 5821 5822 5822 5823 5824 5826 5827 5829 5831 5833 5835 5837 5838 5840 5842 5844 5846 5848 5850 5853 5855 5857 5859
5803 5806 5805 5806 5807 5809 5811 5813 5815 5817 5818 5818 5818 5817 5817 5817 5817 5817 5818 5818 5819 5819 5819 5820 5821 5823 5824 5826 5828 5830 5832 5833 5835 5837 5839 5841 5842 5844 5847 5849 5851 5854 5856 5857
5798 5800 5801 5802 5803 5805 5807 5809 5810 5812 5813 5815 5816 5815 5815 5814 5814 5815 5815 5816 5816 5817 5818 5819 5820 5821 5823 5825 5827 5829 5830 5832 5834 5835 5837 5839 5841 5843 5845 5848 5850 5852 5854 5856
5793 5796 5797 5798 5799 5802 5803 5805 5806 5808 5809 5811 5812 5815 5811 5811 5811 5812 5813 5814 5814 5815 5816 5818 5819 5821 5822 5824 5826 5828 5829 5831 5832 5834 5836 5838 5840 5842 5844 5847 5849 5851 5852 5854
5788 5791 5793 5794 5795 5796 5798 5800 5802 5804 5804 5805 5807 5811 5807 5807 5808 5809 5810 5811 5812 5814 5815 5816 5818 5820 5821 5823 5825 5826 5828 5830 5831 5833 5835 5836 5838 5841 5843 5845 5847 5849 5851 5852
5783 5785 5788 5790 5792 5792 5793 5794 5796 5798 5799 5801 5803 5807 5803 5804 5805 5806 5807 5809 5810 5812 5813 5815 5817 5818 5820 5821 5823 5825 5827 5829 5830 5832 5833 5835 5837 5839 5841 5844 5845 5847 5849 5850
5778 5780 5783 5786 5786 5787 5788 5789 5790 5792 5794 5796 5798 5800 5799 5800 5801 5803 5804 5806 5807 5809 5811 5813 5815 5817 5818 5820 5822 5823 5825 5827 5829 5830 5832 5834 5836 5838 5840 5842 5843 5845 5847 5848
5771 5774 5775 5777 5779 5780 5782 5783 5785 5786 5788 5790 5792 5793 5795 5796 5798 5799 5801 5802 5804 5807 5809 5811 5813 5814 5816 5818 5820 5822 5824 5825 5827 5828 5830 5832 5834 5836 5838 5840 5841 5843 5844 5845
5764 5767 5769 5771 5772 5774 5775 5777 5779 5780 5782 5784 5785 5788 5789 5791 5793 5795 5797 5799 5801 5803 5806 5808 5810 5812 5814 5816 5818 5820 5821 5823 5825 5827 5828 5830 5832 5834 5835 5837 5838 5840 5842 5843
5758 5760 5763 5765 5766 5767 5769 5771 5773 5774 5776 5778 5780 5783 5784 5786 5788 5791 5793 5795 5798 5800 5802 5804 5807 5809 5811 5813 5815 5817 5819 5821 5823 5825 5826 5828 5830 5831 5833 5835 5836 5838 5839 5840
5752 5754 5756 5758 5760 5761 5765 5765 5766 5768 5770 5772 5774 5776 5778 5781 5783 5786 5789 5791 5794 5796 5798 5801 5803 5806 5808 5810 5812 5815 5817 5819 5820 5822 5824 5826 5827 5829 5831 5832 5833 5835 5836 5837
5745 5747 5749 5752 5753 5754 5757 5758 5760 5762 5764 5766 5768 5770 5773 5776 5779 5782 5784 5787 5789 5791 5794 5796 5799 5802 5804 5807 5809 5812 5814 5816 5818 5820 5821 5823 5825 5826 5828 5829 5830 5831 5832 5833
5738 5741 5743 5745 5747 5749 5752 5752 5753 5757 5758 5760 5762 5765 5768 5771 5774 5778 5780 5782 5784 5787 5790 5792 5795 5798 5801 5803 5806 5808 5810 5813 5815 5817 5818 5820 5821 5823 5824 5826 5827 5827 5828 5829
5732 5734 5736 5738 5740 5742 5744 5746 5748 5752 5753 5754 5756 5759 5762 5765 5769 5772 5775 5777 5780 5782 5785 5788 5791 5794 5797 5799 5802 5804 5807 5809 5811 5812 5814 5816 5818 5819 5820 5821 5822 5823 5823 5824
5725 5727 5729 5731 5734 5738 5738 5740 5742 5744 5746 5748 5751 5754 5757 5760 5763 5766 5769 5772 5775 5778 5780 5783 5786 5789 5792 5795 5798 5800 5802 5804 5806 5808 5810 5812 5813 5814 5815 5816 5817 5817 5818 5818
5718 5721 5723 5725 5729 5730 5731 5733 5736 5738 5740 5743 5746 5749 5752 5756 5758 5761 5764 5767 5770 5772 5775 5778 5781 5784 5787 5790 5793 5795 5797 5799 5801 5803 5805 5806 5807 5809 5810 5811 5811 5812 5812 5812
5712 5714 5716 5719 5721 5723 5725 5727 5730 5732 5735 5738 5741 5744 5747 5750 5753 5756 5758 5761 5764 5766 5769 5772 5775 5778 5781 5784 5787 5790 5791 5793 5795 5797 5799 5800 5802 5803 5804 5804 5805 5805 5806 5805
5706 5708 5710 5713 5715 5717 5719 5722 5724 5727 5730 5733 5736 5739 5742 5745 5748 5750 5753 5755 5758 5761 5764 5767 5770 5773 5776 5778 5781 5783 5786 5787 5789 5791 5792 5794 5795 5796 5797 5798 5798 5798 5799 5799
5700 5703 5705 5707 5710 5711 5714 5716 5719 5722 5724 5727 5731 5734 5737 5740 5743 5745 5748 5750 5753 5756 5759 5761 5764 5767 5769 5772 5774 5777 5779 5781 5783 5784 5786 5787 5788 5789 5790 5790 5791 5791 5791 5791
Wind_Speed
16 15 16 16 16 16 16 15 15 15 16 15 15 15 15 13 13 12 12 12 12 12 12 12 12 12 12 13 14 15 15 14 14 14 15 15 15 14 13 13 13 13 12 11
16 16 17 17 16 16 16 15 15 15 16 15 15 15 16 14 13 13 12 12 12 13 13 12 12 12 12 12 13 14 15 15 14 14 14 14 14 13 13 13 12 12 12 11
16 17 18 17 16 15 15 15 15 15 16 15 15 14 15 14 13 13 13 13 13 14 13 13 12 12 12 12 12 14 16 15 14 14 14 14 13 13 13 12 12 11 12 11
18 19 18 17 16 15 15 16 15 16 15 14 14 12 13 13 13 12 12 12 12 13 13 12 12 11 11 12 12 14 16 15 15 15 14 14 13 13 13 12 12 11 11 10
18 18 17 17 16 16 16 16 15 15 14 14 15 14 12 14 12 12 12 12 11 11 12 11 11 11 11 11 12 13 15 15 14 14 14 14 14 13 13 13 12 11 10 10
18 17 17 16 16 16 16 15 15 14 13 14 14 14 12 13 12 11 11 10 10 10 11 11 11 11 11 12 12 12 13 14 14 13 13 13 13 13 13 13 12 11 10 9
17 17 16 16 15 16 16 14 13 12 12 13 14 13 12 11 10 10 10 10 10 10 11 11 11 10 10 11 11 12 12 13 13 13 12 12 13 13 13 13 12 11 10 9
16 15 17 16 16 16 16 14 13 12 11 11 14 13 11 11 11 10 10 10 10 10 9 9 10 10 11 11 11 12 12 12 13 12 12 13 13 13 13 13 12 11 10 9
15 16 18 17 16 16 17 15 15 14 13 11 12 13 12 11 11 11 10 10 10 9 9 9 9 9 11 11 11 12 12 12 13 13 13 14 13 13 13 13 12 12 11 10
17 17 18 17 17 17 17 16 16 14 13 12 11 12 11 10 10 10 10 10 9 9 8 8 9 9 9 10 11 12 12 12 12 13 13 13 13 13 13 13 13 12 11 10
19 17 18 18 17 17 18 17 16 15 14 13 11 12 12 10 10 10 10 9 9 9 9 10 10 10 10 10 11 12 11 12 11 12 12 12 13 13 13 13 13 12 11 10
20 18 18 18 18 19 19 18 17 16 15 14 13 13 13 11 10 11 11 10 10 10 10 11 11 11 11 10 11 11 12 11 11 11 11 12 13 13 12 12 12 11 11 11
19 19 18 18 19 20 20 19 18 18 17 16 14 13 14 12 12 12 12 12 11 12 12 12 12 12 11 11 11 11 12 11 11 11 11 11 12 12 12 12 12 12 11 11
20 19 19 18 19 20 20 20 20 19 18 18 17 16 15 14 14 14 14 14 13 14 14 13 13 13 12 12 12 12 12 12 12 12 12 12 12 12 12 12 12 12 12 12
23 22 21 21 21 21 21 21 21 21 20 19 19 19 17 15 16 16 15 15 15 14 14 14 14 13 13 13 12 13 12 12 12 12 13 13 13 12 12 12 12 12 13 13
24 23 22 22 23 23 23 22 22 22 20 20 19 18 17 18 18 17 17 16 16 16 15 15 15 14 14 13 13 14 13 13 12 12 13 14 14 13 13 12 12 13 13 13
24 23 22 22 23 24 23 21 22 22 21 20 19 19 20 20 20 19 19 18 18 17 16 16 16 16 14 14 15 14 14 14 13 13 13 14 14 13 13 13 13 13 13 13
24 24 23 22 23 24 22 21 21 22 21 21 20 20 21 21 21 20 20 20 19 19 18 18 18 17 16 16 15 15 14 14 14 14 14 13 13 13 13 14 14 14 14 15
24 23 23 23 23 23 22 21 21 21 21 21 21 20 21 21 21 21 19 19 20 21 19 19 19 18 17 17 16 16 15 14 14 14 15 15 15 15 15 15 15 15 15 16
24 24 24 24 23 22 22 21 21 21 21 21 21 21 21 22 23 21 21 20 20 21 20 20 20 19 18 18 17 17 16 16 16 16 16 16 17 17 17 17 17 17 17 18
24 24 23 23 23 23 22 20 21 21 20 20 21 21 21 22 23 22 22 21 21 21 21 21 21 21 20 19 19 18 18 18 18 18 17 17 18 18 18 18 18 18 19 19
23 22 23 22 22 23 21 21 22 22 21 20 21 21 21 22 22 22 22 23 23 23 22 22 22 22 22 21 20 19 19 19 20 19 19 19 19 19 19 19 20 20 20 21
23 23 23 23 23 22 22 22 22 22 22 22 22 22 22 22 23 22 22 23 24 25 24 24 23 23 23 22 22 21 21 21 21 21 21 21 21 21 21 21 22 21 21 22
22 22 23 23 22 21 21 22 22 21 22 22 23 23 22 22 22 23 23 23 23 24 24 23 24 24 24 23 23 23 23 23 23 23 23 23 23 23 23 23 23 23 23 24
21 22 22 22 21 21 22 21 21 22 22 23 23 24 23 23 22 22 22 23 23 23 23 23 23 24 24 25 25 24 24 25 24 24 24 24 24 25 24 25 25 25 26 26
21 22 21 21 21 22 22 22 22 21 22 23 24 24 24 24 23 22 22 22 23 23 23 23 23 24 24 25 25 25 25 26 26 26 26 26 26 26 27 27 27 28 28 28
Wind_Direction
249 246 246 247 247 246 248 248 253 259 266 267 270 276 281 280 276 276 275 270 265 261 258 259 262 260 251 244 232 228 226 226 226 224 222 220 221 220 221 225 224 224 225 222
244 241 243 246 249 250 249 249 252 258 263 266 269 275 278 276 274 273 273 268 263 262 261 261 261 257 249 243 234 227 224 222 221 221 217 215 216 220 220 220 217 220 222 219
240 242 244 246 247 248 250 248 248 253 263 267 269 276 277 272 272 270 269 267 266 262 260 260 260 254 244 239 231 224 222 219 219 218 216 214 216 218 216 217 217 215 217 221
238 241 244 246 247 247 249 251 250 253 260 266 266 270 276 274 271 268 268 268 270 261 259 258 254 248 237 231 225 218 218 218 219 218 215 214 216 218 216 215 212 210 212 214
239 241 244 246 247 246 246 252 254 255 257 259 267 268 270 274 269 265 264 263 262 259 258 257 255 244 231 225 220 217 215 216 219 218 218 217 214 214 213 208 204 204 208 211
235 240 242 243 245 246 249 254 258 262 261 264 266 268 268 273 270 265 260 256 255 254 257 257 249 239 228 222 215 214 214 217 219 219 221 217 210 208 206 200 201 202 205 206
234 237 240 242 243 246 249 253 262 266 265 266 266 266 266 263 264 260 256 253 253 252 255 253 237 233 226 217 210 211 212 212 214 215 213 207 204 202 198 199 201 200 201 202
232 235 238 239 239 243 248 248 246 250 259 265 270 266 264 261 259 256 254 254 252 247 246 242 228 222 216 211 208 208 209 207 208 207 204 200 200 202 201 199 199 200 203 204
227 230 239 238 236 239 244 246 247 253 258 261 266 268 265 259 257 253 249 249 249 240 237 229 223 222 214 208 208 206 206 207 208 207 203 200 200 201 201 198 198 203 207 208
227 230 239 239 237 238 239 244 248 251 250 255 268 270 266 262 254 248 244 243 237 230 226 218 216 212 206 204 202 204 206 207 207 205 202 201 200 199 200 199 201 207 212 213
230 232 238 239 236 239 241 243 246 248 247 249 256 263 262 254 247 236 231 228 223 220 215 211 210 209 206 206 207 207 208 207 205 205 204 202 200 201 203 206 208 211 216 218
234 232 237 241 238 238 244 245 245 247 251 252 253 261 258 248 238 227 223 223 222 219 217 211 207 208 208 211 211 210 207 205 202 201 202 204 203 203 206 209 212 216 217 219
234 235 238 243 246 243 245 246 245 245 247 250 253 256 251 239 230 225 223 221 220 217 215 212 210 210 213 214 213 211 210 209 206 205 205 203 203 206 210 213 217 220 221 224
236 239 236 237 243 248 249 248 246 245 247 251 249 243 244 235 229 225 224 223 221 218 215 214 214 214 216 215 215 215 213 213 212 211 209 207 207 210 213 216 221 223 225 228
238 241 242 240 244 247 250 251 248 247 248 247 245 242 238 231 226 224 223 224 222 219 218 217 216 217 217 217 218 215 215 217 217 217 214 212 212 215 220 223 224 228 230 232
242 243 244 246 249 248 250 249 247 247 246 245 242 237 232 229 226 224 224 225 223 221 220 219 219 219 220 222 222 217 216 218 222 222 220 219 221 223 225 227 231 233 235 238
243 245 246 249 251 251 252 249 247 245 244 242 237 231 227 226 225 225 226 226 225 223 223 221 219 220 223 226 224 221 220 222 225 226 225 225 225 226 230 233 235 238 242 245
243 245 247 248 249 251 251 249 247 244 241 239 235 229 227 227 226 225 227 226 225 224 222 221 222 224 226 226 223 223 224 225 227 228 229 229 229 231 234 238 241 245 249 251
242 244 246 246 247 250 249 247 244 243 240 237 232 227 226 225 225 226 227 227 226 224 222 222 223 224 226 226 225 225 226 229 231 232 232 234 236 239 241 243 247 250 254 256
243 243 244 245 244 246 246 243 241 240 238 233 229 226 225 224 225 224 224 225 225 223 223 223 224 225 226 226 228 228 230 232 234 236 238 239 242 244 246 249 252 255 256 259
240 241 241 242 243 243 241 239 235 234 231 227 225 222 221 221 222 223 224 225 225 224 224 225 225 227 227 228 229 229 231 234 238 241 243 245 246 247 249 252 257 259 259 261
237 239 238 239 240 240 237 235 232 230 228 225 222 221 221 221 221 224 226 227 228 227 226 227 229 228 228 228 229 230 233 237 241 244 246 248 250 251 253 255 258 260 262 263
237 236 237 237 238 238 235 234 232 230 225 222 222 221 222 224 225 227 228 228 229 229 229 230 231 230 230 230 231 233 237 240 243 245 248 250 252 254 257 258 259 261 264 265
236 236 236 236 235 235 232 231 229 226 222 221 221 220 222 224 227 228 229 229 229 228 228 229 229 229 231 233 235 237 240 244 246 248 251 253 254 256 258 260 260 262 264 266
233 231 232 232 232 233 229 227 227 224 222 222 222 220 222 225 227 229 229 227 226 227 228 230 231 232 235 236 237 238 242 246 248 250 253 255 256 257 258 260 262 265 267 269
231 229 230 230 229 228 227 227 225 224 224 223 223 223 224 226 228 228 227 227 227 227 228 230 232 234 236 237 238 239 243 246 249 251 253 254 256 257 259 263 265 265 268 270